RH
45 51 52 49 36 24 24 26 48 26 24 51 39 44 37 42 46 54 43 37 31 26 31 39 53 47 46 41 41 38 41 43 48 33 45 46 51 62 47 60 71 64 70 77
25 42 46 48 47 33 27 38 38 32 28 67 37 47 46 42 41 39 40 36 38 35 32 37 34 40 45 44 41 37 40 43 46 43 48 46 54 52 46 44 52 72 60 83
24 29 40 42 45 42 35 51 76 50 37 41 27 31 38 45 57 48 45 40 42 39 39 37 36 36 50 52 46 50 49 41 40 32 29 34 48 46 50 49 74 54 74 78
25 27 31 34 40 42 42 48 56 50 64 41 33 36 33 38 42 47 49 43 41 36 36 37 41 38 46 58 56 57 48 56 42 42 41 41 42 40 38 62 59 74 82 80
30 30 31 32 32 41 40 55 53 48 45 45 36 41 38 35 35 38 40 44 33 36 37 32 38 36 38 38 55 62 53 59 52 55 41 43 47 41 42 41 40 48 50 55
46 44 40 40 38 39 47 50 50 53 52 47 43 42 37 38 38 40 37 36 36 40 39 38 38 38 35 36 46 58 59 58 53 68 43 44 49 36 37 38 38 37 46 37
46 45 50 51 50 49 51 50 52 55 46 49 46 46 43 42 43 44 38 43 40 48 42 47 52 50 48 44 42 43 52 59 52 67 51 67 40 29 32 33 34 34 34 32
56 54 50 52 56 56 59 58 57 63 44 50 51 53 51 50 49 48 46 44 46 50 50 48 53 50 54 54 51 53 48 51 59 71 66 48 41 41 41 41 38 29 33 41
74 72 70 64 64 64 65 66 65 66 62 49 54 50 52 53 48 49 50 52 51 51 46 51 73 71 43 56 72 62 55 52 59 62 79 74 34 33 35 39 57 41 48 48
85 79 76 75 73 73 73 79 76 84 77 68 62 56 53 53 54 53 54 55 61 59 51 63 69 63 40 49 54 81 74 69 74 72 82 57 35 42 41 64 55 38 44 46
87 86 79 75 76 76 77 88 88 92 93 83 81 73 65 66 62 54 57 56 63 58 64 63 61 56 41 41 34 54 59 69 78 71 81 84 38 40 55 50 45 45 48 52
83 84 84 82 75 72 75 86 90 99 100 89 70 73 78 78 71 66 65 59 62 56 58 53 48 49 42 41 54 36 53 43 47 53 55 37 38 36 41 43 47 45 54 57
81 80 79 77 76 72 68 77 94 99 100 92 98 69 70 76 82 83 76 70 65 65 58 53 52 67 57 64 57 51 42 40 48 49 41 38 38 39 41 40 47 57 59 59
100 99 91 83 72 69 66 59 66 99 99 99 88 88 88 87 89 88 86 82 78 74 73 71 81 84 63 66 56 58 45 46 49 50 43 42 41 41 46 54 60 60 61 59
99 97 93 84 67 59 60 70 55 74 94 96 90 89 63 77 77 76 88 93 94 92 80 83 89 86 84 77 79 84 56 54 56 57 43 42 42 42 51 60 62 62 60 59
81 71 64 57 51 52 90 96 82 99 99 99 99 95 78 69 79 85 94 96 100 99 92 96 87 79 72 96 95 56 51 50 50 50 50 48 50 55 56 62 63 62 62 60
55 48 42 38 41 52 88 84 96 99 100 99 99 99 96 98 93 97 97 100 100 100 99 100 98 93 96 98 89 58 56 55 54 51 50 53 56 59 59 62 59 57 54 63
60 56 51 45 40 40 41 36 58 80 99 99 99 96 94 96 98 97 100 100 100 100 99 100 99 94 98 97 64 58 58 57 57 56 56 57 59 65 64 61 55 68 59 40
50 53 59 55 46 42 39 34 40 47 78 95 96 89 74 95 98 98 100 100 98 98 98 97 97 93 96 74 64 57 53 52 58 64 62 59 59 63 63 60 54 51 48 46
70 62 64 59 87 69 75 84 90 99 97 94 94 77 76 79 94 98 99 99 96 95 85 93 100 85 60 56 55 55 56 59 68 67 61 60 61 57 55 55 54 52 52 49
72 69 62 75 89 97 97 96 99 93 100 99 96 73 70 83 90 94 97 99 89 94 76 91 84 76 56 57 61 61 63 67 68 66 67 65 62 61 58 54 46 47 39 42
74 78 75 77 91 99 96 88 86 98 85 93 98 98 96 93 98 100 99 97 96 92 85 95 84 48 58 64 71 71 71 70 70 70 70 61 53 47 46 47 44 51 46 54
82 84 76 99 93 98 90 80 82 87 81 90 97 92 100 100 100 100 100 99 92 82 93 74 50 57 64 70 70 84 84 76 68 59 52 42 40 41 36 38 31 32 51 52
96 98 94 84 84 74 68 65 68 90 98 98 99 99 99 99 99 98 97 96 96 93 90 77 60 70 68 74 85 95 88 78 69 42 28 26 24 30 40 48 44 46 35 30
97 98 90 89 71 84 88 87 81 83 98 99 99 97 99 90 97 91 86 87 91 74 66 78 86 63 64 73 78 66 46 46 62 47 40 41 42 45 44 48 51 45 42 41
98 98 93 86 88 76 93 82 97 88 100 100 93 93 90 80 87 89 81 75 63 55 76 78 65 52 44 45 44 48 47 51 48 55 55 55 54 58 63 63 59 49 44 44
98 94 82 74 66 71 65 80 68 85 99 80 60 78 66 72 79 76 75 66 57 53 48 47 50 48 49 48 44 41 41 43 48 47 48 49 46 44 46 44 32 36 42 47
Wind_Speed
15 18 18 14 7 5 4 4 1 14 6 3 4 3 3 2 3 0 1 2 2 1 1 1 0 1 2 3 2 2 2 3 5 2 4 2 4 5 8 3 3 3 3 7
14 15 18 18 13 4 4 2 2 11 6 3 4 4 3 2 2 2 1 0 2 2 1 2 2 2 2 5 4 1 3 3 4 4 3 4 6 9 10 6 2 7 3 5
13 14 14 16 15 7 3 1 1 5 9 5 4 4 3 3 1 1 0 1 2 2 2 2 2 2 2 5 5 3 2 4 9 7 5 1 6 8 13 11 5 5 12 10
12 12 12 13 13 13 4 4 4 2 2 5 5 2 2 2 2 1 2 2 6 2 3 3 3 2 4 5 6 4 3 6 9 14 17 17 19 18 16 18 18 7 1 7
10 10 11 11 11 8 10 3 1 3 3 1 1 1 2 3 3 4 3 4 1 6 4 3 6 3 4 5 7 5 3 4 9 17 12 7 13 15 18 21 23 25 26 29
9 9 9 9 10 9 5 5 4 2 2 1 3 1 2 3 2 5 4 5 4 7 9 9 10 10 12 8 6 9 4 4 5 6 5 15 14 9 20 12 11 16 19 19
6 7 8 8 9 9 8 6 3 2 2 3 2 4 3 5 7 3 3 7 5 1 3 7 6 6 9 12 14 12 5 6 4 7 12 5 2 2 6 13 13 13 15 13
8 8 8 7 7 7 6 6 3 2 2 3 5 7 5 4 6 6 8 7 4 3 3 3 4 4 3 4 4 8 11 7 4 4 5 13 2 4 5 6 4 11 11 8
10 10 10 9 9 8 6 5 4 2 5 3 2 6 7 4 5 4 4 5 5 2 3 3 3 3 2 3 3 3 6 10 7 2 4 5 4 7 4 2 6 13 5 13
11 11 10 11 11 10 9 6 5 3 5 5 5 5 4 4 4 3 3 5 5 6 4 4 5 5 1 4 5 6 4 6 13 10 6 10 10 10 7 3 2 9 13 17
12 13 13 13 13 12 11 9 9 5 4 12 12 13 10 7 7 5 5 2 4 5 5 4 5 4 4 3 4 7 10 7 6 6 6 10 9 9 6 4 10 16 17 13
15 15 16 15 14 15 14 12 10 8 12 12 20 25 26 21 17 11 8 5 4 9 5 4 3 4 4 6 5 9 6 11 4 10 7 6 11 17 13 18 17 20 14 16
18 18 17 18 18 15 14 15 14 11 13 22 12 6 9 14 24 27 10 10 11 6 8 6 3 7 2 6 9 15 12 16 8 5 14 19 23 21 23 25 19 10 16 20
20 21 20 19 19 19 17 15 14 12 8 7 9 8 10 6 12 22 33 21 11 11 11 7 3 4 9 6 8 8 13 3 11 17 26 29 31 22 11 10 12 19 20 17
22 22 22 19 17 16 16 15 17 14 12 5 10 19 19 24 21 19 22 31 31 13 6 6 4 5 4 5 3 7 24 20 14 17 27 25 26 28 16 15 20 16 16 13
17 16 16 15 15 13 8 6 5 6 15 6 3 6 14 18 20 18 20 25 24 16 8 6 8 11 7 4 5 13 28 27 31 34 34 31 27 23 23 19 12 12 8 9
10 10 10 11 12 12 12 6 5 1 10 5 7 5 5 12 12 14 17 20 14 16 7 9 6 8 9 4 16 28 36 37 35 33 29 30 26 20 21 19 17 10 8 8
12 11 10 11 12 14 19 18 21 14 6 6 4 4 4 7 4 4 7 5 8 9 6 4 5 4 6 6 16 28 35 33 31 30 28 31 25 20 16 12 9 8 11 14
12 12 12 13 15 14 17 17 17 20 17 5 7 3 2 6 4 4 5 6 4 5 5 6 8 4 8 11 20 30 23 20 16 11 12 16 15 9 8 9 9 10 13 17
11 9 5 5 5 10 7 5 6 11 13 14 7 10 6 7 8 6 3 7 3 4 6 7 4 8 26 24 31 34 25 20 13 11 9 8 5 4 7 10 13 15 19 23
7 4 5 7 5 3 5 5 9 9 5 7 9 24 16 10 6 5 9 3 4 4 5 6 4 5 11 16 16 18 21 14 7 1 1 2 7 12 16 21 23 22 25 26
8 6 6 5 4 5 4 4 5 5 4 6 4 4 5 7 12 9 8 4 5 7 9 4 4 4 5 5 6 13 15 12 7 6 10 14 18 20 23 26 30 30 30 31
12 5 4 4 6 7 7 7 4 4 4 3 3 3 3 4 10 7 3 6 5 7 4 4 4 8 3 10 14 14 11 10 12 16 20 22 24 26 28 29 28 26 28 30
9 8 6 6 6 6 6 7 2 2 1 2 4 3 4 4 3 3 5 3 3 4 3 4 5 8 2 9 6 1 7 13 20 28 30 31 32 35 32 29 32 28 29 32
8 7 6 9 9 5 4 5 7 8 3 2 2 5 4 3 5 4 4 4 5 5 3 2 5 9 6 1 14 23 33 39 43 48 39 35 34 36 37 36 34 33 33 34
9 10 6 5 4 9 8 10 10 8 3 3 2 2 4 6 4 4 7 6 8 6 2 1 7 18 23 24 28 32 37 38 40 34 33 32 32 32 33 33 36 38 36 38
8 10 18 21 16 14 13 9 9 9 8 4 7 6 7 3 5 6 4 9 10 16 24 27 28 30 31 33 38 41 42 42 41 42 41 41 41 39 40 41 40 38 37 38
Wind_Direction
26 23 24 32 52 92 90 64 13 358 39 37 53 59 50 77 128 78 350 320 351 330 140 264 176 261 220 173 186 335 55 318 267 279 99 287 233 230 218 245 173 238 296 272
17 21 20 19 25 75 110 91 63 18 61 58 79 116 98 81 152 187 207 330 328 334 300 296 230 203 147 187 203 280 133 209 290 181 183 193 230 220 224 237 249 221 238 258
10 12 17 18 18 25 77 48 88 36 53 60 86 122 94 117 120 132 330 3 220 230 242 238 298 243 177 197 215 213 194 259 245 270 329 303 234 213 214 209 216 239 229 280
7 9 11 16 15 21 37 50 50 37 37 62 92 109 129 133 161 177 202 207 242 270 291 253 245 219 182 196 204 204 252 267 259 270 277 276 267 259 234 224 230 238 307 246
3 3 6 10 16 23 51 69 85 51 67 29 202 157 147 179 163 194 180 229 215 216 244 276 304 268 236 250 182 204 205 274 300 290 265 267 267 256 244 246 244 245 258 273
7 3 6 15 23 31 59 66 94 118 157 168 281 46 165 194 192 201 231 224 254 247 264 278 281 264 262 271 201 205 212 276 318 270 288 303 277 256 220 223 233 238 247 257
7 7 11 16 26 41 56 52 72 304 129 237 215 194 209 225 232 272 202 209 228 194 265 297 273 258 257 244 234 235 227 242 273 284 306 242 37 249 234 232 239 231 247 270
358 7 10 14 20 26 33 35 42 354 271 245 234 220 232 234 241 251 250 237 250 263 297 276 278 198 219 210 254 217 242 238 273 271 284 291 108 181 179 199 276 221 224 249
352 356 0 7 15 14 11 12 18 2 304 200 226 189 204 241 238 240 221 236 226 202 275 259 258 268 11 186 159 233 218 250 254 297 277 270 61 149 144 157 262 161 209 310
344 353 356 353 353 353 354 347 346 2 292 261 198 223 231 193 206 257 165 181 180 182 209 241 234 248 76 223 212 175 188 213 224 238 264 281 286 153 153 253 77 193 307 316
326 334 344 345 341 335 331 316 323 321 274 278 265 251 230 216 216 242 136 202 196 184 217 219 227 241 200 257 214 178 187 193 199 204 228 260 143 140 223 19 337 326 316 312
312 317 322 325 327 328 321 308 306 285 268 260 277 275 260 241 248 258 214 244 168 208 227 231 271 233 229 239 251 188 249 210 237 204 222 276 206 252 254 299 296 305 301 308
288 294 301 307 307 307 309 296 294 296 288 301 270 284 277 266 239 225 239 230 232 224 236 296 264 244 218 234 234 250 245 250 241 257 246 253 266 285 284 289 303 307 310 306
268 277 284 286 290 286 289 292 292 263 268 273 285 277 280 270 240 225 219 225 226 240 238 235 224 228 221 243 260 263 259 265 250 256 268 279 276 277 289 295 294 305 302 295
264 272 276 275 276 273 280 286 288 272 227 279 285 272 263 266 260 257 238 233 233 240 230 219 222 224 269 231 268 243 252 255 253 261 266 274 279 289 300 303 299 297 297 290
262 267 269 268 265 263 266 295 279 258 235 258 273 280 274 271 261 256 242 239 239 223 202 217 227 216 236 248 245 244 263 257 252 259 269 277 284 284 286 291 289 294 264 276
248 250 254 259 256 242 212 229 196 175 203 258 283 266 247 256 263 253 243 234 224 221 224 220 223 220 212 256 258 265 271 270 269 273 273 277 274 276 285 273 280 258 274 283
253 254 255 258 263 261 253 250 247 247 230 256 258 264 256 218 202 215 215 207 212 227 239 231 205 220 214 256 262 269 265 269 272 269 266 270 274 272 267 256 234 265 288 301
265 266 268 271 260 255 264 265 254 239 223 240 224 227 288 198 187 195 193 204 223 223 228 214 190 200 223 233 253 260 270 271 267 269 259 264 265 248 233 247 260 275 287 302
269 277 261 248 225 239 264 251 214 209 213 225 244 230 236 196 177 201 206 200 227 237 221 180 227 255 259 263 257 268 273 268 253 248 248 215 238 267 282 283 285 286 290 290
246 222 230 252 266 250 232 235 206 202 233 219 232 232 239 227 212 214 215 204 204 236 192 204 237 257 245 267 273 274 269 260 243 280 69 322 303 303 304 298 291 283 286 289
205 215 258 264 236 231 227 225 223 214 241 191 220 222 219 211 206 215 201 232 191 241 140 220 246 256 307 333 79 88 97 102 80 20 338 321 313 307 302 301 292 286 289 288
231 223 223 206 214 226 221 211 213 214 199 208 214 226 223 208 206 228 231 226 225 131 214 233 263 15 339 143 128 107 84 47 14 346 330 315 307 304 294 294 295 294 285 283
195 190 199 212 212 226 214 228 258 23 7 197 214 245 222 225 223 236 259 235 206 218 231 228 68 19 65 173 164 223 332 322 323 321 314 309 305 305 301 292 295 289 290 294
213 202 215 222 228 242 233 237 258 264 256 216 259 253 225 231 257 229 261 238 244 228 262 73 103 43 48 277 285 291 290 294 282 302 305 306 307 303 303 303 301 299 296 296
210 213 233 215 227 237 235 239 246 249 225 216 212 276 267 236 230 231 232 254 256 306 52 247 312 312 304 293 287 281 283 284 290 295 294 294 296 295 292 294 297 304 305 300
210 218 229 243 257 250 247 249 255 212 186 220 250 232 237 309 236 237 241 265 288 302 297 291 287 282 284 285 287 292 294 294 296 300 305 305 306 304 300 299 303 302 300 299